Location: Unspecified
(43.3830°N, 0.0000°E)
Time: 10:42:29
(UTC+00:00)

Transit 2A - Pass Details

Date: 25 June 2019
Orbit: 594 x 964 km, 66.7° (Epoch: 19 July)

Event Time Altitude Azimuth Distance (km) Brightness Sun altitude
Rises 02:10:02 0° 276° (W) 3,648 9.3 -17.1°
Reaches altitude 10° 02:14:12 10° 302° (WNW) 2,684 8.8 -16.7°
Maximum altitude 02:17:11 14° 330° (NNW) 2,410 8.9 -16.4°
Drops below altitude 10° 02:20:06 10° 359° (N) 2,623 9.6 -16.1°
Sets 02:24:07 0° 25° (NNE) 3,498 11.2 -15.7°
